User: anonymous   Login
Location: Montr�al
(45.5000°N, 73.5830°W)
Time: 04:47:14
(UTC-05:00)
Language:

Cosmos 1470 Rocket - Orbit

View from above orbital plane
View from above orbital plane
View from above satellite
View from above satellite

Ground track
Ground track

The orbit data is extracted from the following two-line orbital elements,

1 14148U 83061B   17019.65904414  .00000075  00000-0  61816-5 0  9996
2 14148  82.5173  48.7009 0023171 101.6535  36.5852 14.83208394812821
Epoch (UTC): 19 January 2017 15:49:01
Eccentricity: 0.0023171
inclination: 82.5173°
perigee height: 603 km
apogee height: 635 km
right ascension of ascending node: 48.7009°
argument of perigee: 101.6535°
revolutions per day: 14.83208394
mean anomaly at epoch: 36.5852°
orbit number at epoch: 81282

The dashed part of the orbit path shows where the satellite is in the earth's shadow,  

DLR